This demonstration page uses our WeatherBlox Daily Observations layout. Learn more.

Left ArrowRight Arrow

Hourly Observations for October 15, 2016

Temp ( °F °C ) Dew Point ( °F °C ) Humidity (%) Winds ( mph kmh ) Pressure ( in mb ) Visibility ( mi km ) Precip ( " mm )
12:15 am 00:15 Clear 63 17 55 13 77 77 S 18 30 29.68 1005 10 16 0.00 0.00
12:35 am 00:35 Clear 63 17 55 13 77 77 S 15 24 29.68 1005 10 16 0.00 0.00
12:55 am 00:55 Clear 61 16 55 13 83 83 S 14 22 29.71 1006 10 16 0.00 0.00
1:15 am 01:15 Clear 61 16 55 13 83 83 S 14 22 29.71 1006 10 16 0.00 0.00
1:35 am 01:35 Clear 61 16 55 13 83 83 S 12 19 29.71 1006 10 16 0.00 0.00
1:55 am 01:55 Clear 61 16 55 13 83 83 S 8 13 29.71 1006 10 16 0.00 0.00
2:15 am 02:15 Clear 59 15 55 13 88 88 S 10 17 29.71 1006 10 16 0.00 0.00
2:35 am 02:35 Clear 59 15 55 13 88 88 S 15 24 29.71 1006 10 16 0.00 0.00
2:55 am 02:55 Clear 59 15 55 13 88 88 S 17 28 29.68 1005 10 16 0.00 0.00
3:15 am 03:15 Mostly Cloudy 61 16 55 13 83 83 S 17 28 29.68 1005 10 16 0.00 0.00
3:35 am 03:35 Cloudy 61 16 57 14 88 88 S 16 26 29.68 1005 10 16 0.00 0.00
3:55 am 03:55 Cloudy 61 16 57 14 88 88 S 18 30 29.68 1005 10 16 0.00 0.00
4:15 am 04:15 Cloudy 63 17 57 14 83 83 S 18 30 29.65 1004 10 16 0.00 0.00
4:35 am 04:35 Cloudy 63 17 57 14 83 83 S 18 30 29.65 1004 10 16 0.00 0.00
4:55 am 04:55 Cloudy 63 17 57 14 83 83 S 15 24 29.65 1004 10 16 0.00 0.00
5:15 am 05:15 Cloudy 63 17 59 15 88 88 SSW 6 9 29.68 1005 10 16 0.00 0.00
5:35 am 05:35 Cloudy 64 18 59 15 83 83 SSW 9 15 29.68 1005 10 16 0.00 0.00
5:55 am 05:55 Cloudy 64 18 59 15 83 83 SSW 10 17 29.68 1005 10 16 0.00 0.00
6:15 am 06:15 Cloudy 63 17 57 14 83 83 S 10 17 29.65 1004 10 16 0.00 0.00
6:35 am 06:35 Mostly Cloudy 63 17 57 14 83 83 S 9 15 29.65 1004 10 16 0.00 0.00
6:55 am 06:55 Partly Cloudy 61 16 57 14 88 88 S 12 19 29.68 1005 10 16 0.00 0.00
7:15 am 07:15 Mostly Clear 61 16 57 14 88 88 S 8 13 29.68 1005 9 14 0.00 0.00
7:35 am 07:35 Clear 59 15 55 13 88 88 S 3 6 29.68 1005 7 11 0.00 0.00
7:55 am 07:55 Cloudy 57 14 55 13 94 94 S 3 6 29.71 1006 1 2 0.00 0.00
8:15 am 08:15 Cloudy 57 14 54 12 88 88 Calm 29.71 1006 5 8 0.00 0.00
8:35 am 08:35 Cloudy 57 14 55 13 94 94 S 3 6 29.71 1006 0 0 0.00 0.00
8:55 am 08:55 Cloudy 59 15 55 13 88 88 Calm 29.71 1006 3 5 0.00 0.00
9:15 am 09:15 Mostly Cloudy 61 16 57 14 88 88 Calm 29.71 1006 3 5 0.00 0.00
9:35 am 09:35 Cloudy 63 17 59 15 88 88 Calm 29.74 1007 5 8 0.00 0.00
9:55 am 09:55 Partly Cloudy 64 18 61 16 88 88 S 3 6 29.68 1005 9 14 0.00 0.00
10:15 am 10:15 Mostly Sunny 66 19 61 16 83 83 S 6 9 29.68 1005 10 16 0.00 0.00
10:35 am 10:35 Mostly Cloudy 66 19 61 16 83 83 W 8 13 29.71 1006 10 16 0.00 0.00
10:55 am 10:55 Mostly Cloudy 68 20 59 15 73 73 W 8 13 29.71 1006 10 16 0.00 0.00
11:15 am 11:15 Mostly Cloudy 70 21 59 15 69 69 NW 5 7 29.71 1006 10 16 0.00 0.00
11:35 am 11:35 Partly Cloudy 70 21 59 15 69 69 NW 3 6 29.71 1006 10 16 0.00 0.00
11:55 am 11:55 Sunny 72 22 59 15 65 65 NW 6 9 29.68 1005 9 14 0.00 0.00
12:15 pm 12:15 Sunny 72 22 59 15 65 65 Calm 29.68 1005 10 16 0.00 0.00
12:35 pm 12:35 Sunny 75 24 59 15 57 57 NNE 7 11 29.68 1005 10 16 0.00 0.00
12:55 pm 12:55 Sunny 73 23 57 14 57 57 NNE 3 6 29.68 1005 10 16 0.00 0.00
1:15 pm 13:15 Sunny 75 24 57 14 54 54 WNW 6 9 29.68 1005 10 16 0.00 0.00
1:35 pm 13:35 Sunny 75 24 57 14 54 54 NNE 3 6 29.68 1005 10 16 0.00 0.00
1:55 pm 13:55 Sunny 77 25 57 14 51 51 N 3 6 29.68 1005 10 16 0.00 0.00
2:15 pm 14:15 Sunny 77 25 57 14 51 51 NNE 5 7 29.62 1003 10 16 0.00 0.00
2:35 pm 14:35 Sunny 79 26 57 14 48 48 NNE 3 6 29.62 1003 10 16 0.00 0.00
2:55 pm 14:55 Sunny 79 26 57 14 48 48 NNE 5 7 29.62 1003 10 16 0.00 0.00
3:15 pm 15:15 Sunny 81 27 57 14 45 45 ENE 6 9 29.62 1003 10 16 0.00 0.00
3:35 pm 15:35 Sunny 79 26 57 14 48 48 NNE 3 6 29.62 1003 10 16 0.00 0.00
3:55 pm 15:55 Sunny 79 26 55 13 45 45 NNW 5 7 29.65 1004 10 16 0.00 0.00
4:15 pm 16:15 Sunny 81 27 57 14 45 45 N 5 7 29.65 1004 10 16 0.00 0.00
4:35 pm 16:35 Sunny 81 27 55 13 42 42 N 8 13 29.65 1004 10 16 0.00 0.00
4:55 pm 16:55 Sunny 81 27 55 13 42 42 NNE 8 13 29.65 1004 10 16 0.00 0.00
5:15 pm 17:15 Sunny 81 27 55 13 42 42 N 8 13 29.65 1004 10 16 0.00 0.00
5:35 pm 17:35 Sunny 79 26 55 13 45 45 N 6 9 29.65 1004 10 16 0.00 0.00
5:55 pm 17:55 Sunny 79 26 54 12 42 42 N 7 11 29.65 1004 10 16 0.00 0.00
6:15 pm 18:15 Sunny 75 24 54 12 47 47 NNE 5 7 29.71 1006 10 16 0.00 0.00
6:35 pm 18:35 Sunny 73 23 54 12 50 50 NNE 6 9 29.71 1006 10 16 0.00 0.00
6:55 pm 18:55 Sunny 72 22 52 11 50 50 NNE 7 11 29.71 1006 10 16 0.00 0.00
7:15 pm 19:15 Clear 66 19 52 11 60 60 N 7 11 29.74 1007 10 16 0.00 0.00
7:35 pm 19:35 Clear 64 18 46 8 52 52 N 8 13 29.74 1007 10 16 0.00 0.00
7:55 pm 19:55 Clear 63 17 45 7 52 52 N 6 9 29.80 1009 10 16 0.00 0.00
8:15 pm 20:15 Clear 63 17 45 7 52 52 N 6 9 29.80 1009 10 16 0.00 0.00
8:35 pm 20:35 Clear 61 16 43 6 52 52 NNE 7 11 29.80 1009 10 16 0.00 0.00
8:55 pm 20:55 Clear 59 15 43 6 55 55 NNE 5 7 29.80 1009 10 16 0.00 0.00
9:15 pm 21:15 Clear 59 15 43 6 55 55 Calm 29.83 1010 10 16 0.00 0.00
9:35 pm 21:35 Clear 57 14 43 6 59 59 Calm 29.85 1011 2 3 0.00 0.00
9:55 pm 21:55 Clear 59 15 43 6 55 55 Calm 29.83 1010 3 4 0.00 0.00
10:15 pm 22:15 Clear 59 15 43 6 55 55 Calm 29.83 1010 10 16 0.00 0.00
10:35 pm 22:35 Clear 57 14 45 7 63 63 Calm 29.85 1011 10 16 0.00 0.00
10:55 pm 22:55 Clear 59 15 45 7 59 59 NE 3 6 29.83 1010 10 16 0.00 0.00
11:15 pm 23:15 Clear 57 14 43 6 59 59 NE 5 7 29.85 1011 10 16 0.00 0.00
11:35 pm 23:35 Clear 54 12 43 6 67 67 NE 8 13 29.85 1011 10 16 0.00 0.00
11:55 pm 23:55 Clear 52 11 43 6 72 72 ENE 6 9 29.85 1011 10 16 0.00 0.00

Powered by AerisWeather